WXM80 ListenWXM80 Stop

You find our weather info also at:

UK Metoffice

WeatherCloud

Weather Underground

Northeastern Weather Network

AWEKAS

Citizen Weather Observer Program (CWOP)

HAMweather, WeatherForYou, PWS Weather


Weather Underground History page Text

Daily Summary for October 11, 2016 Units:  English    Metric   Both
« Previous Day
Next Day »
Daily Weekly Monthly Yearly Custom
  High: Low: Average:
Temperature: 63.5 °F 48.8 °F 55.4 °F
Dew Point: 51.6 °F 38.2 °F 45.9 °F
Humidity: 91 % 57 % 71 %
Wind Speed: 7.0 mph 0.0 mph 2.3 mph
Wind Gust: 12.0 mph - -
Wind:- - ENE
Pressure: 30.45 in 30.34 in -
Precipitation: 0.00 in    
Historical Graphs
 
 
Tabular Data for October 11, 2016
Time Temperature Dew Point Pressure Wind Wind Speed Wind Gust Humidity Rainfall Rate (Hourly)
00:01 52.9 °F 38.5 °F 30.34 in NNE 3.6 mph 8.1 mph 58 % 0.00 in
00:06 52.8 °F 38.4 °F 30.34 in NNE 6.0 mph 12.0 mph 58 % 0.00 in
00:11 52.8 °F 39.2 °F 30.35 in NNE 5.0 mph 7.0 mph 60 % 0.00 in
00:16 52.7 °F 39.2 °F 30.35 in NNE 3.0 mph 9.0 mph 60 % 0.00 in
00:21 52.6 °F 39.1 °F 30.35 in NNE 2.0 mph 7.0 mph 60 % 0.00 in
00:26 52.5 °F 39.0 °F 30.35 in NNE 5.0 mph 9.0 mph 60 % 0.00 in
00:31 52.4 °F 39.3 °F 30.35 in NNE 6.0 mph 9.0 mph 61 % 0.00 in
00:36 52.3 °F 38.8 °F 30.35 in NNE 6.0 mph 12.0 mph 60 % 0.00 in
00:41 52.3 °F 38.8 °F 30.36 in North 6.0 mph 12.0 mph 60 % 0.00 in
00:46 52.3 °F 38.8 °F 30.36 in North 7.0 mph 10.0 mph 60 % 0.00 in
00:51 52.2 °F 38.3 °F 30.36 in North 5.0 mph 7.0 mph 59 % 0.00 in
00:56 52.2 °F 38.7 °F 30.36 in NNE 5.0 mph 12.0 mph 60 % 0.00 in
01:01 52.1 °F 38.6 °F 30.36 in NNW 3.1 mph 5.8 mph 60 % 0.00 in
01:06 52.1 °F 38.6 °F 30.37 in North 3.0 mph 9.0 mph 60 % 0.00 in
01:11 52.1 °F 38.2 °F 30.37 in NNE 6.0 mph 10.0 mph 59 % 0.00 in
01:16 52.1 °F 39.1 °F 30.37 in North 6.0 mph 9.0 mph 61 % 0.00 in
01:21 52.1 °F 39.1 °F 30.37 in North 3.0 mph 12.0 mph 61 % 0.00 in
01:26 52.1 °F 39.5 °F 30.37 in North 5.0 mph 10.0 mph 62 % 0.00 in
01:31 52.1 °F 39.1 °F 30.37 in North 3.0 mph 9.0 mph 61 % 0.00 in
01:36 52.0 °F 39.4 °F 30.38 in North 5.0 mph 8.0 mph 62 % 0.00 in
01:40 51.9 °F 39.3 °F 30.38 in North 5.0 mph 8.0 mph 62 % 0.00 in
01:41 51.9 °F 39.3 °F 30.38 in NNE 4.8 mph 8.1 mph 62 % 0.00 in
01:45 51.8 °F 39.2 °F 30.38 in NNE 5.0 mph 9.0 mph 62 % 0.00 in
01:46 51.8 °F 39.2 °F 30.38 in NNE 4.7 mph 9.2 mph 62 % 0.00 in
01:50 51.8 °F 39.6 °F 30.37 in North 3.0 mph 10.0 mph 63 % 0.00 in
01:51 51.8 °F 39.2 °F 30.37 in North 6.0 mph 10.0 mph 62 % 0.00 in
01:55 51.7 °F 39.9 °F 30.37 in North 2.0 mph 9.0 mph 64 % 0.00 in
02:05 51.5 °F 39.7 °F 30.37 in NNE 3.0 mph 10.0 mph 64 % 0.00 in
02:10 51.4 °F 39.6 °F 30.38 in NNE 3.0 mph 8.0 mph 64 % 0.00 in
02:15 51.4 °F 40.0 °F 30.38 in North 5.0 mph 9.0 mph 65 % 0.00 in
02:20 51.3 °F 39.9 °F 30.37 in North 6.0 mph 10.0 mph 65 % 0.00 in
02:25 51.2 °F 39.8 °F 30.38 in North 5.0 mph 9.0 mph 65 % 0.00 in
02:30 51.2 °F 39.8 °F 30.38 in NNE 3.0 mph 8.0 mph 65 % 0.00 in
02:35 51.1 °F 39.7 °F 30.37 in North 3.0 mph 10.0 mph 65 % 0.00 in
02:40 51.0 °F 40.0 °F 30.37 in North 3.0 mph 12.0 mph 66 % 0.00 in
02:45 51.0 °F 40.0 °F 30.38 in North 3.0 mph 9.0 mph 66 % 0.00 in
02:50 51.0 °F 40.0 °F 30.38 in North 3.0 mph 11.0 mph 66 % 0.00 in
02:55 50.9 °F 39.9 °F 30.37 in NNE 5.0 mph 9.0 mph 66 % 0.00 in
03:05 50.9 °F 39.9 °F 30.38 in NNE 7.0 mph 10.0 mph 66 % 0.00 in
03:10 50.8 °F 39.8 °F 30.38 in NNE 5.0 mph 8.0 mph 66 % 0.00 in
03:15 50.7 °F 40.1 °F 30.38 in NNE 2.0 mph 7.0 mph 67 % 0.00 in
03:20 50.7 °F 40.1 °F 30.38 in NNE 3.0 mph 8.0 mph 67 % 0.00 in
03:25 50.6 °F 40.4 °F 30.38 in NNE 3.0 mph 7.0 mph 68 % 0.00 in
03:30 50.6 °F 40.4 °F 30.38 in NNE 5.0 mph 11.0 mph 68 % 0.00 in
03:35 50.5 °F 40.3 °F 30.39 in NNE 6.0 mph 9.0 mph 68 % 0.00 in
03:40 50.5 °F 39.9 °F 30.38 in NNE 3.0 mph 10.0 mph 67 % 0.00 in
03:45 50.4 °F 40.2 °F 30.39 in NNE 5.0 mph 8.0 mph 68 % 0.00 in
03:50 50.3 °F 39.8 °F 30.39 in NNE 3.0 mph 9.0 mph 67 % 0.00 in
04:05 50.2 °F 40.4 °F 30.39 in NNE 3.0 mph 9.0 mph 69 % 0.00 in
04:10 50.2 °F 40.4 °F 30.38 in NNE 2.0 mph 7.0 mph 69 % 0.00 in
04:15 50.1 °F 40.7 °F 30.38 in NNE 3.0 mph 8.0 mph 70 % 0.00 in
04:20 50.1 °F 40.3 °F 30.39 in NNE 3.0 mph 9.0 mph 69 % 0.00 in
04:25 50.0 °F 40.6 °F 30.38 in NNE 3.0 mph 8.0 mph 70 % 0.00 in
04:30 50.0 °F 40.2 °F 30.39 in NNE 3.0 mph 12.0 mph 69 % 0.00 in
04:35 50.0 °F 40.6 °F 30.39 in NNE 3.0 mph 9.0 mph 70 % 0.00 in
04:45 49.9 °F 41.6 °F 30.39 in NNE 5.0 mph 11.0 mph 73 % 0.00 in
04:50 49.9 °F 41.6 °F 30.39 in NNE 3.0 mph 9.0 mph 73 % 0.00 in
04:55 49.8 °F 41.5 °F 30.39 in NNE 7.0 mph 12.0 mph 73 % 0.00 in
05:05 49.6 °F 40.9 °F 30.40 in NNE 6.0 mph 10.0 mph 72 % 0.00 in
05:10 49.5 °F 41.2 °F 30.41 in NNE 3.0 mph 9.0 mph 73 % 0.00 in
05:15 49.4 °F 40.7 °F 30.40 in NNE 5.0 mph 9.0 mph 72 % 0.00 in
05:20 49.3 °F 41.0 °F 30.41 in NNE 3.0 mph 7.0 mph 73 % 0.00 in
05:25 49.2 °F 40.6 °F 30.40 in NNE 6.0 mph 12.0 mph 72 % 0.00 in
05:30 49.1 °F 40.5 °F 30.40 in NNE 3.0 mph 11.0 mph 72 % 0.00 in
05:35 49.1 °F 40.5 °F 30.40 in NE 3.0 mph 9.0 mph 72 % 0.00 in
05:40 49.0 °F 40.0 °F 30.41 in NE 3.0 mph 10.0 mph 71 % 0.00 in
05:45 49.0 °F 40.0 °F 30.41 in NE 2.0 mph 9.0 mph 71 % 0.00 in
05:50 49.0 °F 40.4 °F 30.41 in NE 3.0 mph 8.0 mph 72 % 0.00 in
05:55 48.9 °F 40.6 °F 30.41 in NE 3.0 mph 6.0 mph 73 % 0.00 in
06:05 49.0 °F 40.4 °F 30.41 in NE 5.0 mph 8.0 mph 72 % 0.00 in
06:10 49.0 °F 40.4 °F 30.41 in ENE 2.0 mph 10.0 mph 72 % 0.00 in
06:15 49.0 °F 40.4 °F 30.41 in ENE 3.0 mph 7.0 mph 72 % 0.00 in
06:20 49.0 °F 40.4 °F 30.41 in ENE 3.0 mph 7.0 mph 72 % 0.00 in
06:25 48.9 °F 40.3 °F 30.41 in ENE 3.0 mph 9.0 mph 72 % 0.00 in
06:30 48.9 °F 40.6 °F 30.42 in NE 2.0 mph 7.0 mph 73 % 0.00 in
06:35 48.9 °F 40.6 °F 30.41 in NE 3.0 mph 10.0 mph 73 % 0.00 in
06:40 49.0 °F 40.7 °F 30.42 in ENE 3.0 mph 9.0 mph 73 % 0.00 in
06:45 49.0 °F 40.7 °F 30.41 in ENE 3.0 mph 9.0 mph 73 % 0.00 in
06:50 49.0 °F 41.1 °F 30.42 in ENE 3.0 mph 9.0 mph 74 % 0.00 in
06:55 48.9 °F 41.0 °F 30.42 in ENE 3.0 mph 9.0 mph 74 % 0.00 in
07:05 48.9 °F 41.3 °F 30.42 in ENE 2.0 mph 9.0 mph 75 % 0.00 in
07:10 48.9 °F 41.3 °F 30.42 in ENE 2.0 mph 4.0 mph 75 % 0.00 in
07:15 48.8 °F 41.6 °F 30.42 in NE 2.0 mph 7.0 mph 76 % 0.00 in
07:20 48.8 °F 41.6 °F 30.42 in NE 2.0 mph 6.0 mph 76 % 0.00 in
07:25 48.8 °F 41.6 °F 30.42 in NE 3.0 mph 7.0 mph 76 % 0.00 in
07:30 48.8 °F 41.6 °F 30.42 in ENE 3.0 mph 7.0 mph 76 % 0.00 in
07:35 48.9 °F 41.7 °F 30.42 in ENE 1.0 mph 8.0 mph 76 % 0.00 in
07:40 49.1 °F 42.2 °F 30.43 in ENE 2.0 mph 10.0 mph 77 % 0.00 in
07:45 49.2 °F 42.3 °F 30.43 in ENE 3.0 mph 6.0 mph 77 % 0.00 in
07:50 49.3 °F 42.4 °F 30.43 in ENE 3.0 mph 7.0 mph 77 % 0.00 in
07:55 49.5 °F 42.6 °F 30.43 in ENE 3.0 mph 8.0 mph 77 % 0.00 in
08:05 49.6 °F 42.7 °F 30.43 in NE 3.0 mph 6.0 mph 77 % 0.00 in
08:10 49.8 °F 42.9 °F 30.43 in NE 2.0 mph 6.0 mph 77 % 0.00 in
08:15 49.9 °F 43.0 °F 30.43 in ENE 3.0 mph 8.0 mph 77 % 0.00 in
08:25 50.2 °F 42.9 °F 30.43 in NE 3.0 mph 10.0 mph 76 % 0.00 in
08:30 50.5 °F 43.2 °F 30.43 in ENE 3.0 mph 8.0 mph 76 % 0.00 in
08:35 50.7 °F 43.1 °F 30.44 in ENE 3.0 mph 6.0 mph 75 % 0.00 in
08:40 50.9 °F 43.6 °F 30.44 in ENE 2.0 mph 6.0 mph 76 % 0.00 in
08:45 51.0 °F 43.4 °F 30.43 in ENE 3.0 mph 7.0 mph 75 % 0.00 in
08:50 51.2 °F 43.5 °F 30.44 in ENE 3.0 mph 9.0 mph 75 % 0.00 in
08:55 51.4 °F 43.7 °F 30.44 in ENE 3.0 mph 9.0 mph 75 % 0.00 in
09:05 51.7 °F 44.0 °F 30.44 in ENE 3.0 mph 7.0 mph 75 % 0.00 in
09:10 51.8 °F 44.1 °F 30.44 in NE 3.0 mph 10.0 mph 75 % 0.00 in
09:15 51.9 °F 43.9 °F 30.44 in ENE 3.0 mph 9.0 mph 74 % 0.00 in
09:20 52.0 °F 44.0 °F 30.44 in ENE 5.0 mph 10.0 mph 74 % 0.00 in
09:25 52.1 °F 44.1 °F 30.44 in NE 2.0 mph 9.0 mph 74 % 0.00 in
09:32 52.3 °F 44.6 °F 30.45 in ENE 4.0 mph 5.0 mph 75 % 0.00 in
09:37 52.5 °F 44.8 °F 30.45 in NE 3.8 mph 8.0 mph 75 % 0.00 in
09:42 52.7 °F 45.0 °F 30.45 in ENE 3.9 mph 8.1 mph 75 % 0.00 in
09:47 52.9 °F 45.2 °F 30.45 in North 3.3 mph 4.0 mph 75 % 0.00 in
09:53 53.1 °F 45.4 °F 30.45 in NE 4.8 mph 5.0 mph 75 % 0.00 in
09:58 53.5 °F 45.4 °F 30.45 in ENE 3.3 mph 9.2 mph 74 % 0.00 in
10:03 53.8 °F 46.1 °F 30.45 in ENE 2.4 mph 4.6 mph 75 % 0.00 in
10:05 54.1 °F 46.0 °F 30.45 in ENE 3.0 mph 8.0 mph 74 % 0.00 in
10:08 53.8 °F 46.1 °F 30.45 in ENE 2.4 mph 4.6 mph 75 % 0.00 in
10:10 54.4 °F 46.3 °F 30.45 in NE 3.0 mph 8.0 mph 74 % 0.00 in
10:13 54.5 °F 46.4 °F 30.45 in ENE 4.1 mph 9.2 mph 74 % 0.00 in
10:15 54.6 °F 46.5 °F 30.45 in NE 2.0 mph 9.0 mph 74 % 0.00 in
10:18 54.8 °F 46.7 °F 30.45 in ENE 5.1 mph 8.1 mph 74 % 0.00 in
10:20 54.9 °F 46.8 °F 30.45 in NE 5.0 mph 10.0 mph 74 % 0.00 in
10:23 55.0 °F 46.9 °F 30.45 in NNE 3.9 mph 5.0 mph 74 % 0.00 in
10:25 55.1 °F 47.0 °F 30.45 in NE 3.0 mph 8.0 mph 74 % 0.00 in
10:28 55.3 °F 47.5 °F 30.45 in ENE 4.9 mph 7.0 mph 75 % 0.00 in
10:30 55.5 °F 47.7 °F 30.45 in NE 2.0 mph 8.0 mph 75 % 0.00 in
10:33 55.8 °F 47.6 °F 30.45 in ENE 3.5 mph 4.6 mph 74 % 0.00 in
10:35 55.9 °F 47.4 °F 30.45 in ENE 5.0 mph 8.0 mph 73 % 0.00 in
10:38 56.2 °F 47.7 °F 30.45 in NE 1.2 mph 3.0 mph 73 % 0.00 in
10:40 56.3 °F 47.0 °F 30.45 in ENE 1.0 mph 5.0 mph 71 % 0.00 in
10:44 56.6 °F 47.7 °F 30.45 in NNE 2.7 mph 6.9 mph 72 % 0.00 in
10:45 56.7 °F 47.4 °F 30.45 in ENE 3.0 mph 8.0 mph 71 % 0.00 in
10:49 57.0 °F 47.7 °F 30.45 in NE 6.0 mph 9.2 mph 71 % 0.00 in
10:50 57.1 °F 47.4 °F 30.45 in ENE 2.0 mph 9.0 mph 70 % 0.00 in
10:54 57.3 °F 47.6 °F 30.45 in ENE 4.0 mph 7.0 mph 70 % 0.00 in
10:55 57.3 °F 47.2 °F 30.44 in ENE 3.0 mph 8.0 mph 69 % 0.00 in
10:59 57.4 °F 47.3 °F 30.45 in NE 3.6 mph 4.6 mph 69 % 0.00 in
11:04 57.5 °F 47.4 °F 30.45 in ENE 2.0 mph 3.5 mph 69 % 0.00 in
11:05 57.6 °F 47.9 °F 30.45 in ENE 3.0 mph 7.0 mph 70 % 0.00 in
11:09 57.8 °F 47.7 °F 30.45 in NE 2.8 mph 4.6 mph 69 % 0.00 in
11:10 57.9 °F 47.8 °F 30.45 in ENE 1.0 mph 5.0 mph 69 % 0.00 in
11:14 58.2 °F 48.5 °F 30.45 in ENE 3.0 mph 3.5 mph 70 % 0.00 in
11:15 58.4 °F 48.3 °F 30.45 in ENE 3.0 mph 7.0 mph 69 % 0.00 in
11:19 58.7 °F 47.8 °F 30.45 in ENE 1.1 mph 5.8 mph 67 % 0.00 in
11:20 58.9 °F 48.4 °F 30.45 in ENE 3.0 mph 8.0 mph 68 % 0.00 in
11:24 59.4 °F 48.8 °F 30.45 in ENE 3.2 mph 7.0 mph 68 % 0.00 in
11:25 59.5 °F 48.5 °F 30.45 in ENE 3.0 mph 7.0 mph 67 % 0.00 in
11:29 60.1 °F 49.1 °F 30.45 in NE 1.1 mph 4.0 mph 67 % 0.00 in
11:30 60.3 °F 49.3 °F 30.45 in ENE 1.0 mph 7.0 mph 67 % 0.00 in
11:35 60.9 °F 48.6 °F 30.45 in ENE 1.8 mph 4.6 mph 64 % 0.00 in
11:40 61.4 °F 49.5 °F 30.45 in NNE 1.9 mph 6.9 mph 65 % 0.00 in
11:45 62.1 °F 50.2 °F 30.44 in ENE 1.9 mph 3.5 mph 65 % 0.00 in
11:50 62.3 °F 49.5 °F 30.45 in ENE 2.2 mph 7.0 mph 63 % 0.00 in
11:55 62.6 °F 49.8 °F 30.45 in ENE 3.5 mph 7.0 mph 63 % 0.00 in
12:00 62.5 °F 49.7 °F 30.45 in North 2.8 mph 5.0 mph 63 % 0.00 in
12:05 62.6 °F 49.4 °F 30.45 in ENE 3.2 mph 6.9 mph 62 % 0.00 in
12:10 62.5 °F 49.7 °F 30.45 in NE 2.5 mph 5.8 mph 63 % 0.00 in
12:15 62.6 °F 49.8 °F 30.45 in East 1.5 mph 5.8 mph 63 % 0.00 in
12:20 62.9 °F 51.0 °F 30.45 in ENE 1.4 mph 3.5 mph 65 % 0.00 in
12:25 63.3 °F 50.9 °F 30.45 in ENE 2.0 mph 7.0 mph 64 % 0.00 in
12:26 63.3 °F 50.9 °F 30.45 in East 1.7 mph 4.6 mph 64 % 0.00 in
12:30 63.3 °F 51.3 °F 30.45 in ENE 2.0 mph 7.0 mph 65 % 0.00 in
12:31 63.4 °F 51.4 °F 30.44 in ENE 2.1 mph 5.8 mph 65 % 0.00 in
12:35 63.5 °F 49.8 °F 30.45 in ENE 3.0 mph 7.0 mph 61 % 0.00 in
12:36 63.5 °F 49.8 °F 30.45 in ENE 4.5 mph 6.9 mph 61 % 0.00 in
12:40 63.1 °F 49.9 °F 30.44 in ENE 3.0 mph 7.0 mph 62 % 0.00 in
12:41 63.1 °F 49.9 °F 30.44 in ENE 3.0 mph 6.9 mph 62 % 0.00 in
12:45 63.0 °F 50.2 °F 30.44 in ENE 2.0 mph 7.0 mph 63 % 0.00 in
12:46 63.0 °F 50.2 °F 30.44 in ENE 1.3 mph 3.5 mph 63 % 0.00 in
12:50 63.0 °F 49.8 °F 30.44 in ENE 2.0 mph 7.0 mph 62 % 0.00 in
12:51 63.0 °F 50.2 °F 30.44 in ENE 2.2 mph 5.0 mph 63 % 0.00 in
12:55 63.1 °F 51.1 °F 30.44 in ENE 3.0 mph 8.0 mph 65 % 0.00 in
12:56 63.1 °F 50.7 °F 30.44 in NE 3.7 mph 6.9 mph 64 % 0.00 in
13:01 62.9 °F 50.5 °F 30.44 in East 2.8 mph 4.6 mph 64 % 0.00 in
13:05 63.0 °F 50.2 °F 30.44 in ENE 3.0 mph 8.0 mph 63 % 0.00 in
13:06 63.0 °F 50.2 °F 30.43 in NE 1.0 mph 4.6 mph 63 % 0.00 in
13:10 63.2 °F 50.8 °F 30.43 in ENE 3.0 mph 7.0 mph 64 % 0.00 in
13:11 63.1 °F 49.9 °F 30.43 in ENE 4.3 mph 6.9 mph 62 % 0.00 in
13:15 62.9 °F 50.5 °F 30.43 in ENE 3.0 mph 7.0 mph 64 % 0.00 in
13:17 62.9 °F 51.0 °F 30.43 in ENE 2.8 mph 4.6 mph 65 % 0.00 in
13:20 62.9 °F 51.4 °F 30.43 in ENE 3.0 mph 8.0 mph 66 % 0.00 in
13:22 63.0 °F 51.5 °F 30.43 in NE 2.1 mph 4.6 mph 66 % 0.00 in
13:25 63.1 °F 51.1 °F 30.43 in ENE 2.0 mph 7.0 mph 65 % 0.00 in
13:27 63.2 °F 50.8 °F 30.43 in NE 4.4 mph 8.1 mph 64 % 0.00 in
13:30 63.1 °F 50.3 °F 30.43 in ENE 3.0 mph 8.0 mph 63 % 0.00 in
13:32 63.0 °F 51.0 °F 30.43 in ENE 2.8 mph 3.5 mph 65 % 0.00 in
13:35 63.0 °F 51.0 °F 30.43 in NE 3.0 mph 6.0 mph 65 % 0.00 in
13:37 63.0 °F 50.2 °F 30.43 in NE 4.5 mph 6.9 mph 63 % 0.00 in
13:42 63.1 °F 50.3 °F 30.42 in NE 5.5 mph 8.1 mph 63 % 0.00 in
13:45 63.0 °F 51.0 °F 30.42 in ENE 2.0 mph 8.0 mph 65 % 0.00 in
13:47 63.1 °F 51.6 °F 30.42 in East 2.1 mph 3.5 mph 66 % 0.00 in
13:50 63.2 °F 50.0 °F 30.42 in NE 3.0 mph 7.0 mph 62 % 0.00 in
13:52 63.1 °F 49.9 °F 30.42 in ENE 4.7 mph 8.1 mph 62 % 0.00 in
13:55 63.0 °F 50.6 °F 30.42 in NE 3.0 mph 8.0 mph 64 % 0.00 in
13:57 63.0 °F 50.6 °F 30.42 in NE 1.3 mph 3.5 mph 64 % 0.00 in
14:02 63.2 °F 51.2 °F 30.42 in ENE 2.0 mph 4.6 mph 65 % 0.00 in
14:05 63.4 °F 51.0 °F 30.42 in NE 3.0 mph 7.0 mph 64 % 0.00 in
14:08 63.4 °F 50.1 °F 30.42 in NE 2.4 mph 4.6 mph 62 % 0.00 in
14:10 63.2 °F 49.5 °F 30.42 in ENE 3.0 mph 7.0 mph 61 % 0.00 in
14:13 63.0 °F 49.8 °F 30.41 in East 3.6 mph 6.9 mph 62 % 0.00 in
14:15 63.0 °F 49.3 °F 30.42 in ENE 3.0 mph 7.0 mph 61 % 0.00 in
14:18 63.0 °F 49.8 °F 30.41 in NE 4.3 mph 6.9 mph 62 % 0.00 in
14:20 63.2 °F 50.4 °F 30.41 in NE 5.0 mph 7.0 mph 63 % 0.00 in
14:23 63.2 °F 50.0 °F 30.41 in North 4.4 mph 8.1 mph 62 % 0.00 in
14:25 63.2 °F 49.5 °F 30.41 in NNE 3.0 mph 8.0 mph 61 % 0.00 in
14:28 63.2 °F 49.1 °F 30.41 in ENE 2.5 mph 6.9 mph 60 % 0.00 in
14:30 63.2 °F 50.0 °F 30.41 in NE 2.0 mph 8.0 mph 62 % 0.00 in
14:33 63.1 °F 48.5 °F 30.41 in ENE 4.6 mph 6.9 mph 59 % 0.00 in
14:35 62.9 °F 48.8 °F 30.41 in NE 1.0 mph 7.0 mph 60 % 0.00 in
14:38 62.9 °F 49.2 °F 30.41 in NNE 1.5 mph 2.3 mph 61 % 0.00 in
14:40 62.9 °F 48.8 °F 30.40 in NE 3.0 mph 6.0 mph 60 % 0.00 in
14:43 62.8 °F 48.7 °F 30.40 in ENE 2.4 mph 6.9 mph 60 % 0.00 in
14:45 62.7 °F 48.6 °F 30.41 in NE 3.0 mph 7.0 mph 60 % 0.00 in
14:48 62.7 °F 48.6 °F 30.41 in ENE 1.6 mph 3.5 mph 60 % 0.00 in
14:50 62.6 °F 47.1 °F 30.41 in ENE 3.0 mph 7.0 mph 57 % 0.00 in
14:54 62.4 °F 47.0 °F 30.41 in ENE 3.9 mph 4.6 mph 57 % 0.00 in
14:55 62.3 °F 47.8 °F 30.41 in ENE 3.0 mph 7.0 mph 59 % 0.00 in
14:59 62.2 °F 47.2 °F 30.41 in ENE 3.1 mph 4.6 mph 58 % 0.00 in
15:04 62.0 °F 47.5 °F 30.41 in ENE 3.1 mph 4.0 mph 59 % 0.00 in
15:05 61.9 °F 46.5 °F 30.41 in NE 5.0 mph 7.0 mph 57 % 0.00 in
15:09 61.7 °F 46.8 °F 30.40 in NE 2.2 mph 6.9 mph 58 % 0.00 in
15:10 61.7 °F 47.7 °F 30.40 in NE 1.0 mph 7.0 mph 60 % 0.00 in
15:14 61.7 °F 47.2 °F 30.40 in ENE 3.0 mph 4.6 mph 59 % 0.00 in
15:15 61.6 °F 46.2 °F 30.40 in NE 2.0 mph 5.0 mph 57 % 0.00 in
15:19 61.4 °F 46.0 °F 30.40 in ENE 0.6 mph 3.5 mph 57 % 0.00 in
15:24 61.3 °F 47.3 °F 30.40 in NNE 2.5 mph 3.5 mph 60 % 0.00 in
15:25 61.2 °F 47.2 °F 30.40 in NE 1.0 mph 7.0 mph 60 % 0.00 in
15:29 61.1 °F 47.5 °F 30.40 in NE 1.9 mph 3.5 mph 61 % 0.00 in
15:30 61.1 °F 47.1 °F 30.39 in NE 2.0 mph 3.0 mph 60 % 0.00 in
15:34 61.0 °F 47.0 °F 30.39 in ENE 2.2 mph 4.6 mph 60 % 0.00 in
15:35 60.9 °F 47.4 °F 30.39 in NE 3.0 mph 5.0 mph 61 % 0.00 in
15:39 60.7 °F 47.6 °F 30.39 in East 2.2 mph 3.0 mph 62 % 0.00 in
15:40 60.7 °F 47.2 °F 30.40 in ENE 3.0 mph 5.0 mph 61 % 0.00 in
15:45 60.5 °F 47.4 °F 30.40 in NNE 1.8 mph 3.5 mph 62 % 0.00 in
15:50 60.4 °F 47.3 °F 30.39 in ENE 2.0 mph 4.6 mph 62 % 0.00 in
15:55 60.2 °F 48.0 °F 30.40 in ENE 0.2 mph 3.5 mph 64 % 0.00 in
16:00 60.0 °F 47.8 °F 30.40 in ENE 1.9 mph 3.5 mph 64 % 0.00 in
16:05 59.9 °F 47.7 °F 30.39 in ENE 2.3 mph 3.5 mph 64 % 0.00 in
16:10 59.8 °F 48.0 °F 30.39 in NE 0.9 mph 2.3 mph 65 % 0.00 in
16:15 59.7 °F 48.3 °F 30.39 in ENE 2.4 mph 3.5 mph 66 % 0.00 in
16:20 59.6 °F 48.2 °F 30.39 in ENE 2.1 mph 3.5 mph 66 % 0.00 in
16:25 59.5 °F 48.9 °F 30.40 in ENE 0.3 mph 3.0 mph 68 % 0.00 in
16:30 59.5 °F 48.9 °F 30.39 in ENE 1.0 mph 1.2 mph 68 % 0.00 in
16:35 59.4 °F 49.2 °F 30.39 in ENE 2.0 mph 4.0 mph 69 % 0.00 in
16:36 59.4 °F 49.2 °F 30.39 in NE 2.1 mph 4.0 mph 69 % 0.00 in
16:40 59.3 °F 49.1 °F 30.39 in Calm   4.0 mph 69 % 0.00 in
16:41 59.3 °F 49.1 °F 30.39 in Calm   1.2 mph 69 % 0.00 in
16:45 59.3 °F 49.1 °F 30.39 in Calm   3.0 mph 69 % 0.00 in
16:46 59.3 °F 49.1 °F 30.39 in NE 0.1 mph 1.2 mph 69 % 0.00 in
16:50 59.2 °F 49.4 °F 30.39 in Calm   1.0 mph 70 % 0.00 in
16:51 59.2 °F 49.0 °F 30.39 in NE 0.1 mph 1.2 mph 69 % 0.00 in
16:55 59.2 °F 49.4 °F 30.39 in NE 1.0 mph 4.0 mph 70 % 0.00 in
17:05 59.0 °F 49.2 °F 30.39 in Calm   2.0 mph 70 % 0.00 in
17:10 58.9 °F 49.1 °F 30.39 in Calm   1.0 mph 70 % 0.00 in
17:15 58.9 °F 49.5 °F 30.39 in Calm   1.0 mph 71 % 0.00 in
17:20 58.8 °F 49.4 °F 30.39 in Calm   1.0 mph 71 % 0.00 in
17:25 58.7 °F 49.7 °F 30.39 in Calm   1.0 mph 72 % 0.00 in
17:30 58.6 °F 49.6 °F 30.38 in Calm   1.0 mph 72 % 0.00 in
17:35 58.6 °F 50.0 °F 30.39 in Calm     73 % 0.00 in
17:40 58.5 °F 49.9 °F 30.39 in Calm     73 % 0.00 in
17:45 58.4 °F 49.8 °F 30.39 in Calm     73 % 0.00 in
17:50 58.2 °F 49.6 °F 30.39 in Calm     73 % 0.00 in
17:55 58.1 °F 49.5 °F 30.39 in Calm     73 % 0.00 in
18:05 57.8 °F 49.6 °F 30.39 in Calm     74 % 0.00 in
18:10 57.6 °F 49.7 °F 30.39 in Calm     75 % 0.00 in
18:15 57.4 °F 49.9 °F 30.39 in Calm     76 % 0.00 in
18:20 57.2 °F 50.1 °F 30.39 in Calm     77 % 0.00 in
18:25 56.9 °F 49.8 °F 30.39 in Calm     77 % 0.00 in
18:30 56.7 °F 49.6 °F 30.39 in Calm     77 % 0.00 in
18:35 56.3 °F 49.5 °F 30.39 in Calm     78 % 0.00 in
18:40 56.0 °F 49.6 °F 30.39 in Calm     79 % 0.00 in
18:45 55.7 °F 49.6 °F 30.40 in Calm     80 % 0.00 in
18:50 55.5 °F 49.4 °F 30.40 in Calm   1.0 mph 80 % 0.00 in
18:55 55.2 °F 49.1 °F 30.40 in Calm   1.0 mph 80 % 0.00 in
19:05 54.7 °F 49.0 °F 30.39 in Calm   1.0 mph 81 % 0.00 in
19:16 54.5 °F 48.8 °F 30.40 in Calm     81 % 0.00 in
19:21 54.0 °F 48.6 °F 30.40 in Calm     82 % 0.00 in
19:26 53.8 °F 48.4 °F 30.40 in Calm     82 % 0.00 in
19:31 53.6 °F 48.5 °F 30.40 in Calm     83 % 0.00 in
19:36 53.3 °F 48.3 °F 30.40 in Calm     83 % 0.00 in
19:41 53.1 °F 48.4 °F 30.40 in Calm     84 % 0.00 in
19:46 52.9 °F 48.2 °F 30.40 in Calm     84 % 0.00 in
19:51 52.8 °F 48.1 °F 30.40 in Calm     84 % 0.00 in
19:56 52.6 °F 47.9 °F 30.39 in Calm     84 % 0.00 in
20:01 52.4 °F 47.7 °F 30.39 in Calm     84 % 0.00 in
20:06 52.3 °F 47.9 °F 30.39 in Calm     85 % 0.00 in
20:11 52.2 °F 47.8 °F 30.39 in Calm     85 % 0.00 in
20:16 52.0 °F 47.6 °F 30.39 in Calm     85 % 0.00 in
20:21 51.9 °F 47.5 °F 30.39 in NE 0.2 mph 1.2 mph 85 % 0.00 in
20:26 51.7 °F 47.3 °F 30.39 in NE 0.1 mph 1.2 mph 85 % 0.00 in
20:31 51.5 °F 47.1 °F 30.39 in Calm     85 % 0.00 in
20:36 51.4 °F 47.4 °F 30.39 in Calm     86 % 0.00 in
20:41 51.3 °F 47.3 °F 30.39 in Calm     86 % 0.00 in
20:46 51.2 °F 47.5 °F 30.39 in Calm     87 % 0.00 in
20:52 51.1 °F 47.4 °F 30.39 in Calm     87 % 0.00 in
20:57 51.0 °F 47.3 °F 30.39 in Calm     87 % 0.00 in
21:02 50.8 °F 47.1 °F 30.39 in Calm     87 % 0.00 in
21:07 50.8 °F 47.1 °F 30.39 in Calm     87 % 0.00 in
21:12 50.7 °F 47.0 °F 30.39 in Calm     87 % 0.00 in
21:17 50.6 °F 46.9 °F 30.39 in Calm   1.2 mph 87 % 0.00 in
21:22 50.5 °F 47.1 °F 30.39 in Calm     88 % 0.00 in
21:27 50.4 °F 47.0 °F 30.39 in Calm     88 % 0.00 in
21:32 50.3 °F 46.9 °F 30.39 in Calm     88 % 0.00 in
21:37 50.2 °F 46.8 °F 30.39 in Calm     88 % 0.00 in
21:43 50.1 °F 46.7 °F 30.39 in Calm     88 % 0.00 in
21:48 50.0 °F 46.6 °F 30.39 in Calm   1.2 mph 88 % 0.00 in
21:53 49.9 °F 46.8 °F 30.39 in Calm     89 % 0.00 in
21:58 49.9 °F 46.8 °F 30.39 in Calm     89 % 0.00 in
22:03 49.8 °F 46.7 °F 30.39 in NE 0.5 mph 1.2 mph 89 % 0.00 in
22:08 49.8 °F 46.7 °F 30.39 in Calm     89 % 0.00 in
22:13 49.7 °F 46.6 °F 30.39 in Calm     89 % 0.00 in
22:18 49.7 °F 46.6 °F 30.39 in Calm     89 % 0.00 in
22:23 49.6 °F 46.5 °F 30.39 in Calm     89 % 0.00 in
22:28 49.6 °F 46.5 °F 30.39 in Calm     89 % 0.00 in
22:33 49.5 °F 46.4 °F 30.39 in Calm     89 % 0.00 in
22:39 49.5 °F 46.4 °F 30.40 in Calm     89 % 0.00 in
22:44 49.4 °F 46.6 °F 30.40 in Calm     90 % 0.00 in
22:49 49.4 °F 46.6 °F 30.39 in Calm     90 % 0.00 in
22:54 49.4 °F 46.6 °F 30.39 in Calm     90 % 0.00 in
22:59 49.3 °F 46.5 °F 30.39 in Calm     90 % 0.00 in
23:04 49.3 °F 46.5 °F 30.39 in Calm     90 % 0.00 in
23:09 49.2 °F 46.4 °F 30.39 in Calm     90 % 0.00 in
23:14 49.2 °F 46.4 °F 30.39 in Calm     90 % 0.00 in
23:19 49.2 °F 46.4 °F 30.39 in Calm     90 % 0.00 in
23:24 49.1 °F 46.3 °F 30.39 in Calm     90 % 0.00 in
23:30 49.1 °F 46.3 °F 30.39 in Calm     90 % 0.00 in
23:35 49.1 °F 46.6 °F 30.39 in Calm     91 % 0.00 in
23:40 49.1 °F 46.6 °F 30.39 in Calm     91 % 0.00 in
23:45 49.1 °F 46.6 °F 30.39 in Calm     91 % 0.00 in
23:50 49.1 °F 46.6 °F 30.39 in Calm     91 % 0.00 in
23:55 49.0 °F 46.5 °F 30.38 in Calm     91 % 0.00 in
Crab Meadow Weather
Compliments of Weather Underground - 3.25 mb

Script developed by  Jim McMurry - jmcmurry@mwt.net Adapted for the template by  Wim van der Kuil - Leuven-Template.eu

Recycling: We use over 80,000,000,000 aluminum soda cans every year.